User: anonymous   Login
Location: Daytona Beach
(29.2106°N, 81.0231°W)
Time: 15:27:56
(UTC-04:00)
Language:

XW-2D - Orbit

View from above orbital plane
View from above orbital plane
View from above satellite
View from above satellite

Ground track
Ground track

The orbit data is extracted from the following two-line orbital elements,

1 40907U 15049J   21262.48385498  .00001447  00000-0  75861-4 0  9998
2 40907  97.4883 263.5172 0012753 211.1437 300.4785 15.17311497331850
Epoch (UTC): 19 September 2021 11:36:45
Eccentricity: 0.0012753
inclination: 97.4883°
perigee height: 505 km
apogee height: 523 km
right ascension of ascending node: 263.5172°
argument of perigee: 211.1437°
revolutions per day: 15.17311497
mean anomaly at epoch: 300.4785°
orbit number at epoch: 33185

The dashed part of the orbit path shows where the satellite is in the earth's shadow,  

DLR